Time,TemperatureF,DewpointF,PressureIn,WindDirection,WindDirectionDegrees,WindSpeedMPH,WindSpeedGustMPH,Humidity,HourlyPrecipIn,Conditions,Clouds,dailyrainin,SolarRadiationWatts/m^2,SoftwareType,DateUTC
2017-11-19 00:05:00,49.1,42.3,30.27,NNE,17,2.9,4.9,77,0.00,,,0.00,0.00,Weather logger V3.1.,2017-11-19 06:05:00,
2017-11-19 00:10:00,49.1,42.6,30.27,ENE,59,0.0,0.0,78,0.00,,,0.00,0.00,Weather logger V3.1.,2017-11-19 06:10:00,
2017-11-19 00:15:00,49.1,43.0,30.26,North,3,4.0,4.9,79,0.00,,,0.00,0.00,Weather logger V3.1.,2017-11-19 06:15:00,
2017-11-19 00:25:00,48.7,42.6,30.27,North,11,4.5,4.9,79,0.00,,,0.00,0.00,Weather logger V3.1.,2017-11-19 06:25:00,
2017-11-19 00:30:00,48.6,42.4,30.27,North,355,4.0,4.9,79,0.00,,,0.00,0.00,Weather logger V3.1.,2017-11-19 06:30:00,
2017-11-19 00:35:00,48.4,42.3,30.27,NNW,339,4.0,4.9,79,0.00,,,0.00,0.00,Weather logger V3.1.,2017-11-19 06:35:00,
2017-11-19 00:40:00,48.2,42.3,30.27,NNW,348,2.5,4.9,80,0.00,,,0.00,0.00,Weather logger V3.1.,2017-11-19 06:40:00,
2017-11-19 00:45:00,48.0,42.1,30.27,ENE,61,0.0,0.0,80,0.00,,,0.00,0.00,Weather logger V3.1.,2017-11-19 06:45:00,
2017-11-19 00:55:00,47.5,41.9,30.27,North,356,4.9,4.9,81,0.00,,,0.00,0.00,Weather logger V3.1.,2017-11-19 06:55:00,
2017-11-19 01:03:00,47.1,41.9,30.27,NNW,345,3.4,4.9,82,0.00,,,0.00,0.00,Weather logger V3.1.,2017-11-19 07:03:00,
2017-11-19 01:13:00,46.8,41.9,30.27,NNE,18,0.2,2.5,83,0.00,,,0.00,0.00,Weather logger V3.1.,2017-11-19 07:13:00,
2017-11-19 01:18:00,46.4,41.5,30.26,NNE,15,1.3,2.5,83,0.00,,,0.00,0.00,Weather logger V3.1.,2017-11-19 07:18:00,
2017-11-19 01:23:00,46.2,41.7,30.27,North,2,1.3,2.5,84,0.00,,,0.00,0.00,Weather logger V3.1.,2017-11-19 07:23:00,
2017-11-19 01:29:00,46.0,41.5,30.27,NE,50,0.0,0.0,84,0.00,,,0.00,0.00,Weather logger V3.1.,2017-11-19 07:29:00,
2017-11-19 01:34:00,45.7,41.4,30.27,North,359,2.2,2.5,85,0.00,,,0.00,0.00,Weather logger V3.1.,2017-11-19 07:34:00,
2017-11-19 01:39:00,45.5,41.4,30.27,NNW,337,1.8,2.5,85,0.00,,,0.00,0.00,Weather logger V3.1.,2017-11-19 07:39:00,
2017-11-19 01:44:00,45.1,41.2,30.27,NW,312,1.6,2.5,86,0.00,,,0.00,0.00,Weather logger V3.1.,2017-11-19 07:44:00,
2017-11-19 01:49:00,45.0,41.0,30.27,ENE,75,0.0,0.0,86,0.00,,,0.00,0.00,Weather logger V3.1.,2017-11-19 07:49:00,
2017-11-19 01:59:00,44.4,40.8,30.27,NW,311,3.8,4.9,87,0.00,,,0.00,0.00,Weather logger V3.1.,2017-11-19 07:59:00,
2017-11-19 02:09:00,44.1,40.8,30.27,NW,316,2.5,7.6,88,0.00,,,0.00,0.00,Weather logger V3.1.,2017-11-19 08:09:00,
2017-11-19 02:14:00,43.9,40.6,30.27,North,350,0.9,2.5,88,0.00,,,0.00,0.00,Weather logger V3.1.,2017-11-19 08:14:00,
2017-11-19 02:24:00,43.5,40.3,30.27,NE,40,0.0,0.0,88,0.00,,,0.00,0.00,Weather logger V3.1.,2017-11-19 08:24:00,
2017-11-19 02:29:00,43.3,40.6,30.26,ENE,67,0.0,0.0,90,0.00,,,0.00,0.00,Weather logger V3.1.,2017-11-19 08:29:00,
2017-11-19 02:34:00,43.2,40.5,30.27,North,5,0.2,2.5,90,0.00,,,0.00,0.00,Weather logger V3.1.,2017-11-19 08:34:00,
2017-11-19 02:40:00,42.8,40.1,30.27,WNW,293,1.8,2.5,90,0.00,,,0.00,0.00,Weather logger V3.1.,2017-11-19 08:40:00,
2017-11-19 02:45:00,42.6,40.3,30.27,North,358,1.3,2.5,91,0.00,,,0.00,0.00,Weather logger V3.1.,2017-11-19 08:45:00,
2017-11-19 02:55:00,42.3,39.9,30.27,NNW,336,1.8,2.5,91,0.00,,,0.00,0.00,Weather logger V3.1.,2017-11-19 08:55:00,
2017-11-19 03:05:00,42.1,39.9,30.27,NE,40,0.0,0.0,92,0.00,,,0.00,0.00,Weather logger V3.1.,2017-11-19 09:05:00,
2017-11-19 03:10:00,41.9,39.7,30.26,NNW,335,0.0,0.0,92,0.00,,,0.00,0.00,Weather logger V3.1.,2017-11-19 09:10:00,
2017-11-19 03:15:00,41.7,39.9,30.26,NW,313,0.0,0.0,93,0.00,,,0.00,0.00,Weather logger V3.1.,2017-11-19 09:15:00,
2017-11-19 03:20:00,41.5,39.7,30.26,ENE,68,0.0,0.0,93,0.00,,,0.00,0.00,Weather logger V3.1.,2017-11-19 09:20:00,
2017-11-19 03:25:00,41.4,39.6,30.26,West,260,0.7,2.5,93,0.00,,,0.00,0.00,Weather logger V3.1.,2017-11-19 09:25:00,
2017-11-19 03:27:00,41.4,39.6,30.27,NE,44,0.0,0.0,93,0.00,,,0.00,0.00,Weather logger V3.1.,2017-11-19 09:27:00,
2017-11-19 03:32:00,41.2,39.4,30.26,West,277,0.0,0.0,93,0.00,,,0.00,0.00,Weather logger V3.1.,2017-11-19 09:32:00,
2017-11-19 03:42:00,40.8,39.0,30.27,WNW,299,0.0,0.0,93,0.00,,,0.00,0.00,Weather logger V3.1.,2017-11-19 09:42:00,
2017-11-19 03:47:00,40.8,39.0,30.27,NNE,21,0.0,0.0,93,0.00,,,0.00,0.00,Weather logger V3.1.,2017-11-19 09:47:00,
2017-11-19 03:52:00,40.6,39.0,30.27,WNW,283,0.0,0.0,94,0.00,,,0.00,0.00,Weather logger V3.1.,2017-11-19 09:52:00,
2017-11-19 03:57:00,40.5,39.2,30.27,WNW,287,0.0,0.0,95,0.00,,,0.00,0.00,Weather logger V3.1.,2017-11-19 09:57:00,
2017-11-19 04:02:00,40.3,39.0,30.27,East,91,0.0,0.0,95,0.00,,,0.00,0.00,Weather logger V3.1.,2017-11-19 10:02:00,
2017-11-19 04:07:00,40.1,39.0,30.27,NW,308,0.0,0.0,96,0.00,,,0.00,0.00,Weather logger V3.1.,2017-11-19 10:07:00,
2017-11-19 04:12:00,39.9,38.8,30.27,NE,49,0.0,0.0,96,0.00,,,0.00,0.00,Weather logger V3.1.,2017-11-19 10:12:00,
2017-11-19 04:22:00,39.6,38.5,30.26,North,3,0.0,0.0,96,0.00,,,0.00,0.00,Weather logger V3.1.,2017-11-19 10:22:00,
2017-11-19 04:28:00,39.4,38.7,30.26,North,5,0.0,0.0,97,0.00,,,0.00,0.00,Weather logger V3.1.,2017-11-19 10:28:00,
2017-11-19 04:33:00,39.2,38.1,30.26,NNE,19,0.0,0.0,96,0.00,,,0.00,0.00,Weather logger V3.1.,2017-11-19 10:33:00,
2017-11-19 04:38:00,39.2,37.9,30.26,NW,305,3.4,4.9,95,0.00,,,0.00,0.00,Weather logger V3.1.,2017-11-19 10:38:00,
2017-11-19 04:43:00,39.2,37.6,30.26,NW,322,0.0,0.0,94,0.00,,,0.00,0.00,Weather logger V3.1.,2017-11-19 10:43:00,
2017-11-19 04:53:00,39.4,37.8,30.26,WNW,285,0.0,0.0,94,0.00,,,0.00,0.00,Weather logger V3.1.,2017-11-19 10:53:00,
2017-11-19 04:58:00,39.6,38.3,30.26,NNW,337,0.0,0.0,95,0.00,,,0.00,0.00,Weather logger V3.1.,2017-11-19 10:58:00,
2017-11-19 05:03:00,39.6,38.3,30.26,NE,51,0.7,2.5,95,0.00,,,0.00,0.00,Weather logger V3.1.,2017-11-19 11:03:00,
2017-11-19 05:08:00,39.7,38.5,30.26,WNW,301,0.0,0.0,95,0.00,,,0.00,0.00,Weather logger V3.1.,2017-11-19 11:08:00,
2017-11-19 05:13:00,39.7,38.5,30.27,South,190,0.0,0.0,95,0.00,,,0.00,0.00,Weather logger V3.1.,2017-11-19 11:13:00,
2017-11-19 05:18:00,39.6,38.3,30.27,NNW,329,0.0,0.0,95,0.00,,,0.00,0.00,Weather logger V3.1.,2017-11-19 11:18:00,
2017-11-19 05:23:00,39.6,38.3,30.27,East,83,0.0,0.0,95,0.00,,,0.00,0.00,Weather logger V3.1.,2017-11-19 11:23:00,
2017-11-19 05:28:00,39.4,38.3,30.27,WSW,258,0.0,0.0,96,0.00,,,0.00,0.00,Weather logger V3.1.,2017-11-19 11:28:00,
2017-11-19 05:33:00,39.2,38.7,30.27,SSW,201,0.0,0.0,98,0.00,,,0.00,0.00,Weather logger V3.1.,2017-11-19 11:33:00,
2017-11-19 05:44:00,38.7,38.1,30.27,SSW,194,0.0,0.0,98,0.00,,,0.00,0.00,Weather logger V3.1.,2017-11-19 11:44:00,
2017-11-19 05:49:00,38.3,38.1,30.28,SE,130,0.0,0.0,99,0.00,,,0.00,0.00,Weather logger V3.1.,2017-11-19 11:49:00,
2017-11-19 05:54:00,38.1,37.9,30.28,SE,146,0.0,0.0,99,0.00,,,0.00,0.00,Weather logger V3.1.,2017-11-19 11:54:00,
2017-11-19 05:59:00,37.8,37.6,30.28,SSW,193,0.0,0.0,99,0.00,,,0.00,0.00,Weather logger V3.1.,2017-11-19 11:59:00,
2017-11-19 06:04:00,37.6,37.4,30.28,SE,132,0.0,0.0,99,0.00,,,0.00,0.00,Weather logger V3.1.,2017-11-19 12:04:00,
2017-11-19 06:14:00,37.6,37.4,30.28,South,190,0.0,0.0,99,0.00,,,0.00,0.00,Weather logger V3.1.,2017-11-19 12:14:00,
2017-11-19 06:19:00,37.6,37.4,30.28,SSE,148,0.0,0.0,99,0.00,,,0.00,0.00,Weather logger V3.1.,2017-11-19 12:19:00,
2017-11-19 06:24:00,37.6,37.4,30.28,SE,127,0.0,0.0,99,0.00,,,0.00,0.00,Weather logger V3.1.,2017-11-19 12:24:00,
2017-11-19 06:29:00,37.6,37.4,30.28,SSE,155,0.0,0.0,99,0.00,,,0.00,0.00,Weather logger V3.1.,2017-11-19 12:29:00,
2017-11-19 06:34:00,37.6,37.4,30.29,East,98,0.0,0.0,99,0.00,,,0.00,0.00,Weather logger V3.1.,2017-11-19 12:34:00,
2017-11-19 06:37:00,37.6,37.4,30.29,West,266,0.0,0.0,99,0.00,,,0.00,0.00,Weather logger V3.1.,2017-11-19 12:37:00,
2017-11-19 06:42:00,37.6,37.4,30.29,ENE,59,0.0,0.0,99,0.00,,,0.00,0.00,Weather logger V3.1.,2017-11-19 12:42:00,
2017-11-19 06:47:00,37.6,37.0,30.29,NW,307,0.0,0.0,98,0.00,,,0.00,0.00,Weather logger V3.1.,2017-11-19 12:47:00,
2017-11-19 06:52:00,37.6,37.0,30.30,South,175,0.0,0.0,98,0.00,,,0.00,0.00,Weather logger V3.1.,2017-11-19 12:52:00,
2017-11-19 07:02:00,37.8,37.6,30.30,NE,48,0.0,0.0,99,0.00,,,0.00,2.13,Weather logger V3.1.,2017-11-19 13:02:00,
2017-11-19 07:07:00,37.9,36.9,30.30,North,359,0.0,0.0,96,0.00,,,0.00,5.47,Weather logger V3.1.,2017-11-19 13:07:00,
2017-11-19 07:12:00,38.1,37.0,30.31,NW,325,1.6,2.5,96,0.00,,,0.00,9.52,Weather logger V3.1.,2017-11-19 13:12:00,
2017-11-19 07:17:00,38.3,37.0,30.31,WNW,288,0.0,0.0,95,0.00,,,0.00,13.72,Weather logger V3.1.,2017-11-19 13:17:00,
2017-11-19 07:22:00,38.5,37.2,30.30,NW,325,0.0,0.0,95,0.00,,,0.00,18.91,Weather logger V3.1.,2017-11-19 13:22:00,
2017-11-19 07:37:00,39.7,37.6,30.32,North,11,0.0,0.0,92,0.00,,,0.00,27.04,Weather logger V3.1.,2017-11-19 13:37:00,
2017-11-19 07:42:00,40.1,37.4,30.31,NNW,337,1.6,2.5,90,0.00,,,0.00,30.02,Weather logger V3.1.,2017-11-19 13:42:00,
2017-11-19 07:48:00,40.8,37.2,30.32,NW,317,2.9,4.9,87,0.00,,,0.00,32.63,Weather logger V3.1.,2017-11-19 13:48:00,
2017-11-19 07:58:00,42.6,38.1,30.32,NW,321,0.0,0.0,84,0.00,,,0.00,37.82,Weather logger V3.1.,2017-11-19 13:58:00,
2017-11-19 08:03:00,43.5,38.5,30.32,West,279,3.4,4.9,82,0.00,,,0.00,40.62,Weather logger V3.1.,2017-11-19 14:03:00,
2017-11-19 08:08:00,44.6,38.8,30.33,NNW,327,4.7,7.6,80,0.00,,,0.00,43.78,Weather logger V3.1.,2017-11-19 14:08:00,
2017-11-19 08:13:00,45.5,39.4,30.33,NW,326,3.8,4.9,79,0.00,,,0.00,47.01,Weather logger V3.1.,2017-11-19 14:13:00,
2017-11-19 08:18:00,46.2,40.1,30.33,NNW,337,5.6,7.6,79,0.00,,,0.00,50.31,Weather logger V3.1.,2017-11-19 14:18:00,
2017-11-19 08:33:00,48.0,41.2,30.34,North,2,5.4,7.6,77,0.00,,,0.00,55.43,Weather logger V3.1.,2017-11-19 14:33:00,
2017-11-19 08:38:00,48.4,41.5,30.33,NW,305,6.5,10.1,77,0.00,,,0.00,56.81,Weather logger V3.1.,2017-11-19 14:38:00,
2017-11-19 08:43:00,48.7,41.9,30.34,NNW,339,4.9,7.6,77,0.00,,,0.00,57.14,Weather logger V3.1.,2017-11-19 14:43:00,
2017-11-19 08:53:00,49.5,41.5,30.34,NNW,335,10.1,12.5,74,0.00,,,0.00,60.15,Weather logger V3.1.,2017-11-19 14:53:00,
2017-11-19 09:09:00,50.4,41.4,30.35,North,5,3.8,4.9,71,0.00,,,0.00,66.72,Weather logger V3.1.,2017-11-19 15:09:00,
2017-11-19 09:14:00,50.7,40.6,30.35,ENE,60,4.5,7.6,68,0.00,,,0.00,68.25,Weather logger V3.1.,2017-11-19 15:14:00,
2017-11-19 09:19:00,51.3,41.0,30.35,NNE,23,5.4,7.6,68,0.00,,,0.00,69.63,Weather logger V3.1.,2017-11-19 15:19:00,
2017-11-19 09:24:00,51.6,40.6,30.35,North,356,3.4,7.6,66,0.00,,,0.00,72.31,Weather logger V3.1.,2017-11-19 15:24:00,
2017-11-19 09:29:00,52.0,40.6,30.35,ENE,63,4.9,7.6,65,0.00,,,0.00,77.65,Weather logger V3.1.,2017-11-19 15:29:00,
2017-11-19 09:34:00,52.3,41.0,30.35,NNW,333,7.2,7.6,65,0.00,,,0.00,83.48,Weather logger V3.1.,2017-11-19 15:34:00,
2017-11-19 09:49:00,53.2,40.1,30.35,ENE,59,9.6,12.5,61,0.00,,,0.00,105.37,Weather logger V3.1.,2017-11-19 15:49:00,
2017-11-19 09:54:00,53.6,40.5,30.35,NE,53,8.5,10.1,61,0.00,,,0.00,119.71,Weather logger V3.1.,2017-11-19 15:54:00,
2017-11-19 09:59:00,53.6,39.2,30.35,NNE,29,8.7,12.5,58,0.00,,,0.00,132.24,Weather logger V3.1.,2017-11-19 15:59:00,
2017-11-19 10:04:00,53.8,40.3,30.35,North,358,4.7,7.6,60,0.00,,,0.00,144.98,Weather logger V3.1.,2017-11-19 16:04:00,
2017-11-19 10:14:00,54.3,39.0,30.35,NE,50,7.8,10.1,56,0.00,,,0.00,90.10,Weather logger V3.1.,2017-11-19 16:14:00,
2017-11-19 10:20:00,54.5,39.6,30.35,ENE,64,9.2,12.5,57,0.00,,,0.00,164.16,Weather logger V3.1.,2017-11-19 16:20:00,
2017-11-19 10:25:00,54.7,37.4,30.35,NE,40,13.4,17.5,52,0.00,,,0.00,131.25,Weather logger V3.1.,2017-11-19 16:25:00,
2017-11-19 10:45:00,55.6,36.7,30.34,ENE,70,12.8,15.0,49,0.00,,,0.00,229.79,Weather logger V3.1.,2017-11-19 16:45:00,
2017-11-19 10:50:00,55.9,37.6,30.34,NNE,29,11.0,12.5,50,0.00,,,0.00,216.58,Weather logger V3.1.,2017-11-19 16:50:00,
2017-11-19 10:55:00,56.1,37.8,30.34,North,9,8.5,10.1,50,0.00,,,0.00,100.20,Weather logger V3.1.,2017-11-19 16:55:00,
2017-11-19 11:00:00,56.3,36.9,30.33,ENE,66,7.2,10.1,48,0.00,,,0.00,260.78,Weather logger V3.1.,2017-11-19 17:00:00,
2017-11-19 11:05:00,56.3,36.9,30.33,ENE,74,4.0,4.9,48,0.00,,,0.00,288.98,Weather logger V3.1.,2017-11-19 17:05:00,
2017-11-19 11:12:00,56.5,37.0,30.33,ENE,65,6.0,7.6,48,0.00,,,0.00,311.70,Weather logger V3.1.,2017-11-19 17:12:00,
2017-11-19 11:17:00,56.5,37.0,30.33,ENE,60,9.2,12.5,48,0.00,,,0.00,279.74,Weather logger V3.1.,2017-11-19 17:17:00,
2017-11-19 11:22:00,56.7,37.8,30.33,ENE,78,6.0,7.6,49,0.00,,,0.00,344.42,Weather logger V3.1.,2017-11-19 17:22:00,
2017-11-19 11:28:00,56.8,37.9,30.32,North,6,4.0,4.9,49,0.00,,,0.00,366.42,Weather logger V3.1.,2017-11-19 17:28:00,
2017-11-19 11:33:00,57.0,38.1,30.32,East,81,6.9,10.1,49,0.00,,,0.00,387.51,Weather logger V3.1.,2017-11-19 17:33:00,
2017-11-19 11:38:00,57.0,37.6,30.32,ENE,58,12.8,15.0,48,0.00,,,0.00,336.14,Weather logger V3.1.,2017-11-19 17:38:00,
2017-11-19 11:43:00,57.2,38.8,30.32,NNW,340,6.0,7.6,50,0.00,,,0.00,381.23,Weather logger V3.1.,2017-11-19 17:43:00,
2017-11-19 11:48:00,57.2,38.3,30.31,NNW,335,2.5,4.9,49,0.00,,,0.00,381.38,Weather logger V3.1.,2017-11-19 17:48:00,
2017-11-19 11:53:00,57.4,38.5,30.32,North,4,7.6,7.6,49,0.00,,,0.00,411.49,Weather logger V3.1.,2017-11-19 17:53:00,
2017-11-19 11:58:00,57.2,37.8,30.31,ENE,74,6.9,10.1,48,0.00,,,0.00,410.23,Weather logger V3.1.,2017-11-19 17:58:00,
2017-11-19 12:03:00,57.2,37.2,30.31,ENE,76,4.0,4.9,47,0.00,,,0.00,354.82,Weather logger V3.1.,2017-11-19 18:03:00,
2017-11-19 12:06:00,57.4,36.9,30.30,North,10,3.8,4.9,46,0.00,,,0.00,310.43,Weather logger V3.1.,2017-11-19 18:06:00,
2017-11-19 12:11:00,57.4,36.9,30.29,ENE,68,6.5,7.6,46,0.00,,,0.00,305.69,Weather logger V3.1.,2017-11-19 18:11:00,
2017-11-19 12:12:00,57.4,36.9,30.29,ENE,61,4.5,7.6,46,0.00,,,0.00,294.24,Weather logger V3.1.,2017-11-19 18:12:00,
2017-11-19 12:17:00,57.4,37.4,30.30,ENE,75,4.9,4.9,47,0.00,,,0.00,437.07,Weather logger V3.1.,2017-11-19 18:17:00,
2017-11-19 12:22:00,57.4,36.9,30.29,ENE,71,4.0,4.9,46,0.00,,,0.00,450.18,Weather logger V3.1.,2017-11-19 18:22:00,
2017-11-19 12:27:00,57.4,36.9,30.29,ENE,65,8.5,10.1,46,0.00,,,0.00,352.73,Weather logger V3.1.,2017-11-19 18:27:00,
2017-11-19 12:32:00,57.4,36.3,30.28,ENE,65,4.7,4.9,45,0.00,,,0.00,367.44,Weather logger V3.1.,2017-11-19 18:32:00,
2017-11-19 12:47:00,57.9,37.8,30.28,ENE,60,5.6,7.6,47,0.00,,,0.00,305.02,Weather logger V3.1.,2017-11-19 18:47:00,
2017-11-19 12:52:00,57.9,38.3,30.27,North,7,7.2,7.6,48,0.00,,,0.00,489.92,Weather logger V3.1.,2017-11-19 18:52:00,
2017-11-19 12:57:00,58.1,38.5,30.26,NNE,15,7.2,7.6,48,0.00,,,0.00,458.95,Weather logger V3.1.,2017-11-19 18:57:00,
2017-11-19 13:02:00,58.1,38.5,30.26,NNE,21,4.9,7.6,48,0.00,,,0.00,473.54,Weather logger V3.1.,2017-11-19 19:02:00,
2017-11-19 13:07:00,58.3,38.1,30.26,NNE,19,10.1,12.5,47,0.00,,,0.00,384.31,Weather logger V3.1.,2017-11-19 19:07:00,
2017-11-19 13:12:00,58.1,37.9,30.25,ENE,66,6.9,7.6,47,0.00,,,0.00,460.25,Weather logger V3.1.,2017-11-19 19:12:00,
2017-11-19 13:22:00,58.3,37.6,30.25,ENE,71,2.9,4.9,46,0.00,,,0.00,320.93,Weather logger V3.1.,2017-11-19 19:22:00,
2017-11-19 13:28:00,58.3,37.0,30.24,East,89,0.2,2.5,45,0.00,,,0.00,402.04,Weather logger V3.1.,2017-11-19 19:28:00,
2017-11-19 13:33:00,58.3,37.6,30.24,East,83,7.2,7.6,46,0.00,,,0.00,350.39,Weather logger V3.1.,2017-11-19 19:33:00,
2017-11-19 13:43:00,58.6,35.6,30.24,ESE,106,0.0,0.0,42,0.00,,,0.00,434.05,Weather logger V3.1.,2017-11-19 19:43:00,
2017-11-19 13:48:00,59.2,37.9,30.24,East,79,1.6,4.9,45,0.00,,,0.00,454.43,Weather logger V3.1.,2017-11-19 19:48:00,
2017-11-19 13:58:00,59.2,37.9,30.23,NE,55,4.9,7.6,45,0.00,,,0.00,502.08,Weather logger V3.1.,2017-11-19 19:58:00,
2017-11-19 14:08:00,59.5,37.6,30.23,East,84,0.0,0.0,44,0.00,,,0.00,508.54,Weather logger V3.1.,2017-11-19 20:08:00,
2017-11-19 14:13:00,59.5,37.0,30.23,SSW,201,0.0,0.0,43,0.00,,,0.00,522.39,Weather logger V3.1.,2017-11-19 20:13:00,
2017-11-19 14:18:00,59.7,37.2,30.22,ENE,67,0.0,0.0,43,0.00,,,0.00,420.42,Weather logger V3.1.,2017-11-19 20:18:00,
2017-11-19 14:23:00,60.3,36.5,30.22,East,89,1.3,2.5,41,0.00,,,0.00,519.41,Weather logger V3.1.,2017-11-19 20:23:00,
2017-11-19 14:33:00,60.6,36.1,30.22,ENE,77,0.0,0.0,40,0.00,,,0.00,505.43,Weather logger V3.1.,2017-11-19 20:33:00,
2017-11-19 14:38:00,60.8,37.6,30.22,ENE,60,0.2,2.5,42,0.00,,,0.00,451.75,Weather logger V3.1.,2017-11-19 20:38:00,
2017-11-19 14:44:00,60.8,37.6,30.22,East,88,6.3,7.6,42,0.00,,,0.00,520.02,Weather logger V3.1.,2017-11-19 20:44:00,
2017-11-19 14:54:00,60.3,36.5,30.21,ENE,58,6.5,7.6,41,0.00,,,0.00,517.90,Weather logger V3.1.,2017-11-19 20:54:00,
2017-11-19 14:59:00,60.3,36.0,30.21,East,89,3.1,4.9,40,0.00,,,0.00,443.62,Weather logger V3.1.,2017-11-19 20:59:00,
2017-11-19 15:09:00,60.1,37.6,30.21,East,89,0.0,0.0,43,0.00,,,0.00,412.90,Weather logger V3.1.,2017-11-19 21:09:00,
2017-11-19 15:19:00,60.4,37.9,30.20,ENE,62,6.0,10.1,43,0.00,,,0.00,294.77,Weather logger V3.1.,2017-11-19 21:19:00,
2017-11-19 15:34:00,60.1,38.1,30.19,NE,37,3.8,4.9,44,0.00,,,0.00,335.83,Weather logger V3.1.,2017-11-19 21:34:00,
2017-11-19 15:44:00,59.9,37.4,30.19,East,91,1.6,2.5,43,0.00,,,0.00,244.04,Weather logger V3.1.,2017-11-19 21:44:00,
2017-11-19 15:49:00,59.9,37.4,30.19,NNE,31,1.3,2.5,43,0.00,,,0.00,388.80,Weather logger V3.1.,2017-11-19 21:49:00,
2017-11-19 16:00:00,60.1,38.1,30.19,NNE,24,1.6,2.5,44,0.00,,,0.00,259.58,Weather logger V3.1.,2017-11-19 22:00:00,
2017-11-19 16:05:00,60.3,38.3,30.19,ENE,75,1.3,2.5,44,0.00,,,0.00,315.54,Weather logger V3.1.,2017-11-19 22:05:00,
2017-11-19 16:10:00,60.3,38.3,30.19,ENE,71,0.7,2.5,44,0.00,,,0.00,348.42,Weather logger V3.1.,2017-11-19 22:10:00,
2017-11-19 16:21:00,60.3,38.8,30.19,ENE,75,4.9,7.6,45,0.00,,,0.00,332.72,Weather logger V3.1.,2017-11-19 22:21:00,
2017-11-19 16:26:00,60.3,38.3,30.19,East,79,3.4,4.9,44,0.00,,,0.00,130.92,Weather logger V3.1.,2017-11-19 22:26:00,
2017-11-19 16:31:00,60.1,39.2,30.19,East,81,2.2,2.5,46,0.00,,,0.00,153.57,Weather logger V3.1.,2017-11-19 22:31:00,
2017-11-19 16:36:00,59.9,39.0,30.19,ENE,59,4.0,7.6,46,0.00,,,0.00,249.95,Weather logger V3.1.,2017-11-19 22:36:00,
2017-11-19 16:41:00,59.7,39.0,30.19,East,83,4.0,4.9,46,0.00,,,0.00,101.86,Weather logger V3.1.,2017-11-19 22:41:00,
2017-11-19 16:48:00,59.5,39.4,30.19,ENE,78,0.0,0.0,47,0.00,,,0.00,69.95,Weather logger V3.1.,2017-11-19 22:48:00,
2017-11-19 16:53:00,59.2,40.1,30.18,East,82,0.0,0.0,49,0.00,,,0.00,57.25,Weather logger V3.1.,2017-11-19 22:53:00,
2017-11-19 17:03:00,58.5,40.5,30.18,ENE,78,0.0,0.0,51,0.00,,,0.00,25.52,Weather logger V3.1.,2017-11-19 23:03:00,
2017-11-19 17:18:00,57.4,42.8,30.19,ENE,72,0.0,0.0,58,0.00,,,0.00,16.08,Weather logger V3.1.,2017-11-19 23:18:00,
2017-11-19 17:23:00,57.0,43.3,30.19,ENE,72,0.0,0.0,60,0.00,,,0.00,10.46,Weather logger V3.1.,2017-11-19 23:23:00,
2017-11-19 17:28:00,56.3,45.1,30.18,ENE,72,0.0,0.0,66,0.00,,,0.00,5.02,Weather logger V3.1.,2017-11-19 23:28:00,
2017-11-19 17:33:00,55.8,44.6,30.19,ENE,72,0.0,0.0,66,0.00,,,0.00,1.04,Weather logger V3.1.,2017-11-19 23:33:00,
2017-11-19 17:38:00,54.9,45.7,30.18,ENE,72,0.0,0.0,71,0.00,,,0.00,0.00,Weather logger V3.1.,2017-11-19 23:38:00,
2017-11-19 17:44:00,54.1,45.7,30.18,ENE,72,0.0,0.0,73,0.00,,,0.00,0.00,Weather logger V3.1.,2017-11-19 23:44:00,
2017-11-19 17:49:00,53.1,44.2,30.19,ENE,71,0.0,0.0,72,0.00,,,0.00,0.00,Weather logger V3.1.,2017-11-19 23:49:00,
2017-11-19 17:54:00,52.3,44.2,30.18,East,88,0.0,0.0,74,0.00,,,0.00,0.00,Weather logger V3.1.,2017-11-19 23:54:00,
2017-11-19 17:59:00,51.6,44.1,30.18,SW,236,0.0,0.0,75,0.00,,,0.00,0.00,Weather logger V3.1.,2017-11-19 23:59:00,
2017-11-19 18:14:00,49.8,43.5,30.18,East,84,0.0,0.0,79,0.00,,,0.00,0.00,Weather logger V3.1.,2017-11-20 00:14:00,
2017-11-19 18:19:00,49.1,43.5,30.19,East,95,0.0,0.0,81,0.00,,,0.00,0.00,Weather logger V3.1.,2017-11-20 00:19:00,
2017-11-19 18:24:00,48.4,42.8,30.19,East,98,0.0,0.0,81,0.00,,,0.00,0.00,Weather logger V3.1.,2017-11-20 00:24:00,
2017-11-19 18:34:00,47.1,43.2,30.19,East,83,0.0,0.0,86,0.00,,,0.00,0.00,Weather logger V3.1.,2017-11-20 00:34:00,
2017-11-19 18:39:00,46.4,42.4,30.19,East,82,0.0,0.0,86,0.00,,,0.00,0.00,Weather logger V3.1.,2017-11-20 00:39:00,
2017-11-19 18:44:00,45.7,42.1,30.19,East,90,0.0,0.0,87,0.00,,,0.00,0.00,Weather logger V3.1.,2017-11-20 00:44:00,
2017-11-19 18:49:00,45.1,41.9,30.19,SE,145,0.0,0.0,88,0.00,,,0.00,0.00,Weather logger V3.1.,2017-11-20 00:49:00,
2017-11-19 18:54:00,44.6,41.9,30.19,East,92,0.0,0.0,90,0.00,,,0.00,0.00,Weather logger V3.1.,2017-11-20 00:54:00,
2017-11-19 19:00:00,44.1,41.4,30.19,SE,134,0.0,0.0,90,0.00,,,0.00,0.00,Weather logger V3.1.,2017-11-20 01:00:00,
2017-11-19 19:05:00,43.5,40.8,30.19,East,95,0.0,0.0,90,0.00,,,0.00,0.00,Weather logger V3.1.,2017-11-20 01:05:00,
2017-11-19 19:10:00,43.2,40.6,30.19,SE,130,0.0,0.0,91,0.00,,,0.00,0.00,Weather logger V3.1.,2017-11-20 01:10:00,
2017-11-19 19:15:00,42.6,40.3,30.19,SE,144,0.0,0.0,91,0.00,,,0.00,0.00,Weather logger V3.1.,2017-11-20 01:15:00,
2017-11-19 19:20:00,42.3,39.9,30.19,SSE,152,0.0,0.0,91,0.00,,,0.00,0.00,Weather logger V3.1.,2017-11-20 01:20:00,
2017-11-19 19:25:00,41.9,39.6,30.20,ENE,73,0.0,0.0,91,0.00,,,0.00,0.00,Weather logger V3.1.,2017-11-20 01:25:00,
2017-11-19 19:30:00,41.7,39.6,30.20,ENE,66,0.0,0.0,92,0.00,,,0.00,0.00,Weather logger V3.1.,2017-11-20 01:30:00,
2017-11-19 19:40:00,41.4,39.6,30.19,East,85,0.0,0.0,93,0.00,,,0.00,0.00,Weather logger V3.1.,2017-11-20 01:40:00,
2017-11-19 19:50:00,40.8,39.6,30.20,East,94,0.0,0.0,95,0.00,,,0.00,0.00,Weather logger V3.1.,2017-11-20 01:50:00,
2017-11-19 20:00:00,40.3,39.0,30.19,SE,140,0.0,0.0,95,0.00,,,0.00,0.00,Weather logger V3.1.,2017-11-20 02:00:00,
2017-11-19 20:05:00,39.9,38.3,30.19,SE,130,0.0,0.0,94,0.00,,,0.00,0.00,Weather logger V3.1.,2017-11-20 02:05:00,
2017-11-19 20:10:00,39.7,37.9,30.20,SE,124,0.0,0.0,93,0.00,,,0.00,0.00,Weather logger V3.1.,2017-11-20 02:10:00,
2017-11-19 20:21:00,39.4,38.1,30.19,SE,125,0.0,0.0,95,0.00,,,0.00,0.00,Weather logger V3.1.,2017-11-20 02:21:00,
2017-11-19 20:26:00,39.2,37.9,30.19,SE,131,0.0,0.0,95,0.00,,,0.00,0.00,Weather logger V3.1.,2017-11-20 02:26:00,
2017-11-19 20:31:00,39.2,37.6,30.20,SE,144,0.0,0.0,94,0.00,,,0.00,0.00,Weather logger V3.1.,2017-11-20 02:31:00,
2017-11-19 20:36:00,39.2,37.9,30.20,NNE,31,0.0,0.0,95,0.00,,,0.00,0.00,Weather logger V3.1.,2017-11-20 02:36:00,
2017-11-19 20:51:00,38.8,37.8,30.20,SE,144,0.0,0.0,96,0.00,,,0.00,0.00,Weather logger V3.1.,2017-11-20 02:51:00,